ARG1602 SABE-SAZM

Flight info

Callsign ARG1602
Flight time N/A
Altitude 27000
Route PTA8 GBE UW29 VOTRA VOTRA2Q
Aircraft B738/M-MSDFGHILRVW/LB1

Departure

Time 2026-05-06 19:00
Airport Aeroparque Jorge Newbery (SABE)

Arrival

Time N/A
Airport Ástor Piazzola International Airport (SAZM)
Time Latitude Longitude Altitude Speed Heading
2026-05-06 18:35 -34.55868 -58.41147 24 ft 0 kts 41°
2026-05-06 18:47 -34.55881 -58.41161 28 ft 4 kts 35°
2026-05-06 18:47 -34.55900 -58.41172 24 ft 4 kts 328°
2026-05-06 18:48 -34.55917 -58.41153 30 ft 4 kts 311°
2026-05-06 18:48 -34.55926 -58.41140 24 ft 0 kts 311°
2026-05-06 18:51 -34.55911 -58.41160 24 ft 11 kts 311°
2026-05-06 18:51 -34.55866 -58.41223 25 ft 9 kts 311°
2026-05-06 18:52 -34.55834 -58.41285 27 ft 9 kts 300°
2026-05-06 18:52 -34.55804 -58.41346 28 ft 8 kts 302°
2026-05-06 18:52 -34.55771 -58.41403 26 ft 8 kts 306°
2026-05-06 18:52 -34.55742 -58.41460 28 ft 8 kts 299°
2026-05-06 18:53 -34.55720 -58.41519 24 ft 8 kts 279°
2026-05-06 18:53 -34.55746 -58.41569 24 ft 8 kts 205°
2026-05-06 18:53 -34.55786 -58.41607 25 ft 7 kts 246°
2026-05-06 18:53 -34.55773 -58.41665 26 ft 7 kts 295°
2026-05-06 18:54 -34.55751 -58.41718 24 ft 7 kts 297°
2026-05-06 18:54 -34.55730 -58.41770 28 ft 7 kts 297°
2026-05-06 18:54 -34.55704 -58.41818 29 ft 7 kts 311°
2026-05-06 18:54 -34.55677 -58.41864 25 ft 7 kts 305°
2026-05-06 18:55 -34.55651 -58.41909 25 ft 7 kts 303°
2026-05-06 18:55 -34.55625 -58.41955 28 ft 6 kts 304°
2026-05-06 18:55 -34.55601 -58.41999 27 ft 6 kts 304°
2026-05-06 18:55 -34.55576 -58.42042 29 ft 6 kts 304°
2026-05-06 18:56 -34.55553 -58.42084 28 ft 6 kts 304°
2026-05-06 18:56 -34.55529 -58.42125 27 ft 6 kts 308°
2026-05-06 18:56 -34.55503 -58.42163 27 ft 6 kts 311°
2026-05-06 18:56 -34.55477 -58.42201 28 ft 6 kts 308°
2026-05-06 18:57 -34.55453 -58.42240 28 ft 6 kts 307°
2026-05-06 18:57 -34.55429 -58.42279 27 ft 6 kts 307°
2026-05-06 18:57 -34.55406 -58.42316 27 ft 6 kts 307°
2026-05-06 18:57 -34.55383 -58.42354 26 ft 5 kts 304°
2026-05-06 18:58 -34.55368 -58.42396 27 ft 5 kts 285°
2026-05-06 18:58 -34.55363 -58.42441 27 ft 5 kts 277°
2026-05-06 18:58 -34.55367 -58.42484 26 ft 5 kts 242°
2026-05-06 18:58 -34.55398 -58.42503 25 ft 5 kts 180°
2026-05-06 18:59 -34.55423 -58.42472 27 ft 5 kts 122°
2026-05-06 18:59 -34.55475 -58.42375 30 ft 41 kts 125°
2026-05-06 18:59 -34.55782 -58.41833 25 ft 114 kts 123°
2026-05-06 18:59 -34.56349 -58.40816 105 ft 166 kts 123°
2026-05-06 19:00 -34.56992 -58.39667 959 ft 166 kts 118°
2026-05-06 19:00 -34.57559 -58.38339 1332 ft 197 kts 94°
2026-05-06 19:00 -34.57293 -58.36659 1583 ft 214 kts 60°
2026-05-06 19:00 -34.56762 -58.35611 1719 ft 227 kts 44°
2026-05-06 19:01 -34.55018 -58.34084 2333 ft 241 kts 27°
2026-05-06 19:01 -34.53572 -58.32910 2886 ft 261 kts 37°
2026-05-06 19:01 -34.52642 -58.30968 3829 ft 275 kts 70°
2026-05-06 19:01 -34.52604 -58.28626 4924 ft 286 kts 96°
2026-05-06 19:02 -34.53147 -58.26261 5757 ft 294 kts 99°
2026-05-06 19:02 -34.54042 -58.23941 6304 ft 319 kts 126°
2026-05-06 19:02 -34.55773 -58.22249 7018 ft 327 kts 148°
2026-05-06 19:02 -34.57685 -58.20844 8138 ft 316 kts 149°
2026-05-06 19:03 -34.59555 -58.19452 9013 ft 318 kts 149°
2026-05-06 19:03 -34.61491 -58.18024 9537 ft 333 kts 149°
2026-05-06 19:03 -34.63484 -58.16542 10168 ft 342 kts 149°
2026-05-06 19:03 -34.65570 -58.14966 10342 ft 365 kts 148°
2026-05-06 19:04 -34.67781 -58.13259 10594 ft 383 kts 148°
2026-05-06 19:04 -34.69997 -58.11530 11645 ft 372 kts 148°
2026-05-06 19:04 -34.72121 -58.09870 12782 ft 363 kts 148°
2026-05-06 19:04 -34.74250 -58.08204 13536 ft 366 kts 149°
2026-05-06 19:05 -34.76385 -58.06530 14114 ft 372 kts 149°
2026-05-06 19:05 -34.78567 -58.04815 14786 ft 374 kts 149°
2026-05-06 19:05 -34.80767 -58.03087 15444 ft 377 kts 149°
2026-05-06 19:05 -34.82988 -58.01342 16089 ft 381 kts 149°
2026-05-06 19:06 -34.85222 -57.99584 16746 ft 384 kts 149°
2026-05-06 19:06 -34.87477 -57.97809 17392 ft 388 kts 149°
2026-05-06 19:06 -34.88983 -57.96622 17812 ft 390 kts 149°
2026-05-06 19:06 -34.91271 -57.94819 18410 ft 394 kts 149°
2026-05-06 19:07 -34.93580 -57.93005 18972 ft 396 kts 152°
2026-05-06 19:07 -34.96109 -57.91734 19501 ft 389 kts 175°
2026-05-06 19:07 -34.99590 -57.91821 20338 ft 373 kts 200°
2026-05-06 19:07 -35.01245 -57.92456 20703 ft 365 kts 212°
2026-05-06 19:08 -35.03468 -57.93914 21286 ft 362 kts 218°
2026-05-06 19:08 -35.05638 -57.95485 21775 ft 365 kts 219°
2026-05-06 19:08 -35.07820 -57.97110 22295 ft 368 kts 219°
2026-05-06 19:08 -35.10009 -57.98744 22874 ft 370 kts 219°
2026-05-06 19:09 -35.12190 -58.00361 23425 ft 373 kts 219°
2026-05-06 19:09 -35.14412 -58.01998 23879 ft 375 kts 219°
2026-05-06 19:09 -35.16661 -58.03646 24329 ft 377 kts 218°
2026-05-06 19:09 -35.18917 -58.05294 24795 ft 379 kts 218°
2026-05-06 19:10 -35.21185 -58.06948 25245 ft 381 kts 218°
2026-05-06 19:10 -35.23473 -58.08616 25670 ft 383 kts 218°
2026-05-06 19:10 -35.25772 -58.10291 26120 ft 385 kts 218°
2026-05-06 19:10 -35.28081 -58.11975 26556 ft 387 kts 218°
2026-05-06 19:11 -35.30401 -58.13666 26739 ft 389 kts 219°
2026-05-06 19:11 -35.32757 -58.15393 26756 ft 400 kts 218°
2026-05-06 19:11 -35.35177 -58.17166 26761 ft 409 kts 218°
2026-05-06 19:11 -35.37636 -58.18965 26756 ft 413 kts 218°
2026-05-06 19:12 -35.40106 -58.20766 26753 ft 411 kts 219°
2026-05-06 19:12 -35.42559 -58.22556 26743 ft 411 kts 219°
2026-05-06 19:12 -35.44986 -58.24330 26742 ft 410 kts 219°
2026-05-06 19:12 -35.47443 -58.26129 26743 ft 410 kts 219°
2026-05-06 19:13 -35.49890 -58.27924 26752 ft 410 kts 219°
2026-05-06 19:13 -35.52340 -58.29724 26749 ft 410 kts 219°
2026-05-06 19:13 -35.54793 -58.31527 26745 ft 410 kts 219°
2026-05-06 19:13 -35.57248 -58.33333 26756 ft 411 kts 219°
2026-05-06 19:14 -35.59700 -58.35138 26756 ft 411 kts 218°
2026-05-06 19:14 -35.62158 -58.36948 26752 ft 412 kts 218°
2026-05-06 19:14 -35.64648 -58.38786 26760 ft 422 kts 218°
2026-05-06 19:14 -35.67161 -58.40643 26755 ft 431 kts 218°
2026-05-06 19:15 -35.69753 -58.42557 26752 ft 439 kts 218°
2026-05-06 19:15 -35.72426 -58.44464 26736 ft 452 kts 212°
2026-05-06 19:15 -35.75515 -58.45575 26746 ft 476 kts 193°
2026-05-06 19:15 -35.78901 -58.45473 26735 ft 499 kts 173°
2026-05-06 19:16 -35.82294 -58.44412 26770 ft 507 kts 169°
2026-05-06 19:16 -35.85720 -58.43237 26744 ft 513 kts 168°
2026-05-06 19:16 -35.89174 -58.42030 26741 ft 518 kts 168°
2026-05-06 19:16 -35.92656 -58.40825 26731 ft 522 kts 169°
2026-05-06 19:17 -35.96171 -58.39629 26733 ft 525 kts 169°
2026-05-06 19:17 -35.99686 -58.38451 26721 ft 518 kts 169°
2026-05-06 19:17 -36.03094 -58.37315 26731 ft 497 kts 169°
2026-05-06 19:17 -36.06366 -58.36230 26722 ft 479 kts 170°
2026-05-06 19:18 -36.09528 -58.35185 26726 ft 461 kts 170°
2026-05-06 19:18 -36.12575 -58.34181 26728 ft 445 kts 170°
2026-05-06 19:18 -36.15498 -58.33222 26465 ft 437 kts 171°
2026-05-06 19:18 -36.18420 -58.32264 26179 ft 431 kts 171°
2026-05-06 19:19 -36.21311 -58.31316 25786 ft 427 kts 171°
2026-05-06 19:19 -36.24179 -58.30373 25397 ft 424 kts 171°
2026-05-06 19:19 -36.27025 -58.29436 25008 ft 422 kts 171°
2026-05-06 19:19 -36.29851 -58.28502 24628 ft 419 kts 170°
2026-05-06 19:20 -36.32659 -58.27573 24221 ft 417 kts 170°
2026-05-06 19:20 -36.35457 -58.26647 23835 ft 415 kts 170°
2026-05-06 19:20 -36.38244 -58.25724 23430 ft 414 kts 170°
2026-05-06 19:20 -36.41021 -58.24803 23010 ft 412 kts 170°
2026-05-06 19:21 -36.43782 -58.23886 22578 ft 410 kts 170°
2026-05-06 19:21 -36.46527 -58.22972 22174 ft 407 kts 170°
2026-05-06 19:21 -36.49249 -58.22066 21780 ft 404 kts 170°
2026-05-06 19:21 -36.51958 -58.21165 21397 ft 401 kts 170°
2026-05-06 19:22 -36.54614 -58.20278 21025 ft 399 kts 170°
2026-05-06 19:22 -36.57288 -58.19387 20624 ft 396 kts 170°
2026-05-06 19:22 -36.59944 -58.18500 20265 ft 394 kts 170°
2026-05-06 19:22 -36.62582 -58.17621 19895 ft 392 kts 170°
2026-05-06 19:23 -36.65216 -58.16741 19516 ft 390 kts 170°
2026-05-06 19:23 -36.67834 -58.15866 19145 ft 388 kts 170°
2026-05-06 19:23 -36.70440 -58.14994 18765 ft 387 kts 170°
2026-05-06 19:23 -36.73042 -58.14123 18384 ft 387 kts 170°
2026-05-06 19:24 -36.75638 -58.13254 17995 ft 386 kts 170°
2026-05-06 19:24 -36.78230 -58.12386 17588 ft 385 kts 170°
2026-05-06 19:24 -36.80811 -58.11520 17198 ft 382 kts 170°
2026-05-06 19:24 -36.83381 -58.10750 16801 ft 376 kts 179°
2026-05-06 19:25 -36.85948 -58.10596 16462 ft 367 kts 186°
2026-05-06 19:25 -36.88464 -58.10630 16108 ft 364 kts 187°
2026-05-06 19:25 -36.90987 -58.10701 15776 ft 361 kts 187°
2026-05-06 19:25 -36.93499 -58.10808 15503 ft 363 kts 188°
2026-05-06 19:26 -36.96037 -58.10915 15078 ft 365 kts 188°
2026-05-06 19:26 -36.98562 -58.11015 14783 ft 362 kts 188°
2026-05-06 19:26 -37.01080 -58.11112 14496 ft 360 kts 188°
2026-05-06 19:26 -37.03565 -58.11207 14258 ft 355 kts 188°
2026-05-06 19:27 -37.06019 -58.11297 14087 ft 349 kts 188°
2026-05-06 19:27 -37.08412 -58.11378 13980 ft 341 kts 188°
2026-05-06 19:27 -37.10798 -58.11460 13536 ft 346 kts 188°
2026-05-06 19:27 -37.13220 -58.11551 13060 ft 349 kts 187°
2026-05-06 19:28 -37.15651 -58.11164 12679 ft 360 kts 164°
2026-05-06 19:28 -37.17935 -58.09980 12427 ft 358 kts 161°
2026-05-06 19:28 -37.20218 -58.08765 12111 ft 355 kts 161°
2026-05-06 19:28 -37.22500 -58.07567 11790 ft 355 kts 161°
2026-05-06 19:29 -37.24779 -58.06386 11488 ft 353 kts 161°
2026-05-06 19:29 -37.27038 -58.05223 11148 ft 348 kts 161°
2026-05-06 19:29 -37.29272 -58.04080 10789 ft 344 kts 161°
2026-05-06 19:29 -37.31449 -58.02968 10666 ft 332 kts 161°
2026-05-06 19:30 -37.33562 -58.01883 10431 ft 325 kts 161°
2026-05-06 19:30 -37.35678 -58.00805 9910 ft 331 kts 161°
2026-05-06 19:30 -37.37813 -57.99719 9509 ft 329 kts 161°
2026-05-06 19:30 -37.39922 -57.98644 9186 ft 326 kts 161°
2026-05-06 19:31 -37.42011 -57.97578 8800 ft 321 kts 161°
2026-05-06 19:31 -37.44048 -57.96537 8371 ft 319 kts 161°
2026-05-06 19:31 -37.48128 -57.94450 7571 ft 313 kts 160°
2026-05-06 19:32 -37.50142 -57.93421 7162 ft 311 kts 160°
2026-05-06 19:32 -37.52138 -57.92402 6746 ft 307 kts 160°
2026-05-06 19:32 -37.54120 -57.91390 6333 ft 305 kts 158°
2026-05-06 19:32 -37.56071 -57.90393 5979 ft 300 kts 157°
2026-05-06 19:33 -37.57999 -57.89406 5575 ft 298 kts 157°
2026-05-06 19:33 -37.59910 -57.88429 5148 ft 295 kts 156°
2026-05-06 19:33 -37.61781 -57.87467 4768 ft 292 kts 155°
2026-05-06 19:33 -37.63657 -57.86503 4410 ft 289 kts 155°
2026-05-06 19:34 -37.65513 -57.85547 4039 ft 287 kts 154°
2026-05-06 19:34 -37.67346 -57.84607 3682 ft 283 kts 153°
2026-05-06 19:34 -37.69168 -57.83672 3281 ft 281 kts 152°
2026-05-06 19:34 -37.70948 -57.82741 3022 ft 269 kts 150°
2026-05-06 19:35 -37.72641 -57.81876 2996 ft 256 kts 150°
2026-05-06 19:35 -37.74244 -57.81071 2975 ft 236 kts 150°
2026-05-06 19:35 -37.75738 -57.80324 2886 ft 228 kts 149°
2026-05-06 19:35 -37.77188 -57.79544 2601 ft 223 kts 146°
2026-05-06 19:36 -37.78580 -57.78776 2407 ft 212 kts 146°
2026-05-06 19:36 -37.79883 -57.78100 2294 ft 199 kts 150°
2026-05-06 19:36 -37.81114 -57.77494 2274 ft 184 kts 146°
2026-05-06 19:36 -37.82291 -57.76868 2276 ft 180 kts 144°
2026-05-06 19:37 -37.83431 -57.76275 2263 ft 175 kts 148°
2026-05-06 19:37 -37.84380 -57.75464 2231 ft 152 kts 107°
2026-05-06 19:37 -37.84654 -57.74236 2217 ft 156 kts 112°
2026-05-06 19:37 -37.85196 -57.73615 2311 ft 168 kts 139°
2026-05-06 19:38 -37.86165 -57.72367 2294 ft 137 kts 95°
2026-05-06 19:38 -37.86493 -57.71196 2261 ft 142 kts 109°
2026-05-06 19:38 -37.87001 -57.70096 2178 ft 149 kts 109°
2026-05-06 19:38 -37.87541 -57.68974 1977 ft 149 kts 111°
2026-05-06 19:39 -37.88094 -57.67878 1779 ft 143 kts 111°
2026-05-06 19:39 -37.88624 -57.66832 1591 ft 141 kts 110°
2026-05-06 19:39 -37.89156 -57.65775 1393 ft 142 kts 114°
2026-05-06 19:39 -37.89677 -57.64736 1193 ft 140 kts 112°
2026-05-06 19:40 -37.90203 -57.63684 1033 ft 143 kts 114°
2026-05-06 19:40 -37.90740 -57.62601 836 ft 144 kts 116°
2026-05-06 19:40 -37.91288 -57.61556 632 ft 139 kts 124°
2026-05-06 19:40 -37.91738 -57.60472 458 ft 140 kts 102°
2026-05-06 19:41 -37.92079 -57.59306 337 ft 140 kts 122°
2026-05-06 19:41 -37.92545 -57.58353 1096 ft 126 kts 116°
2026-05-06 19:41 -37.93036 -57.57303 1505 ft 148 kts 110°
2026-05-06 19:41 -37.93609 -57.56171 1996 ft 163 kts 116°
2026-05-06 19:42 -37.94362 -57.54919 2427 ft 189 kts 117°
2026-05-06 19:42 -37.95257 -57.53737 3366 ft 184 kts 131°
2026-05-06 19:42 -37.96249 -57.52604 3805 ft 203 kts 118°
2026-05-06 19:42 -37.96784 -57.50946 4459 ft 196 kts 108°
2026-05-06 19:43 -37.97412 -57.49449 5450 ft 188 kts 107°
2026-05-06 19:43 -37.97884 -57.47886 6124 ft 197 kts 94°
2026-05-06 19:43 -37.97790 -57.46113 6355 ft 209 kts 64°
2026-05-06 19:43 -37.97279 -57.44339 6950 ft 219 kts 64°
2026-05-06 19:44 -37.96758 -57.42494 7563 ft 228 kts 64°
2026-05-06 19:44 -37.96238 -57.40572 8338 ft 232 kts 65°
2026-05-06 19:44 -37.95707 -57.38623 8999 ft 240 kts 62°
2026-05-06 19:44 -37.94958 -57.36731 9679 ft 241 kts 52°
2026-05-06 19:45 -37.94113 -57.34862 10363 ft 247 kts 53°
2026-05-06 19:45 -37.93246 -57.32980 10976 ft 251 kts 53°
2026-05-06 19:45 -37.92388 -57.31000 11593 ft 258 kts 53°
2026-05-06 19:45 -37.91437 -57.29034 12108 ft 271 kts 50°
2026-05-06 19:46 -37.90403 -57.26887 12303 ft 298 kts 52°
2026-05-06 19:46 -37.89285 -57.24566 12619 ft 316 kts 51°
2026-05-06 19:46 -37.88101 -57.22198 13409 ft 320 kts 52°
2026-05-06 19:46 -37.86949 -57.19811 13993 ft 326 kts 52°
2026-05-06 19:47 -37.85764 -57.17340 14697 ft 330 kts 52°
2026-05-06 19:47 -37.84580 -57.14849 15455 ft 332 kts 52°
2026-05-06 19:47 -37.83381 -57.12322 16100 ft 336 kts 50°
2026-05-06 19:47 -37.81959 -57.09989 16727 ft 337 kts 47°
2026-05-06 19:48 -37.80723 -57.07402 17429 ft 347 kts 55°
2026-05-06 19:48 -37.79546 -57.04711 18136 ft 351 kts 54°
2026-05-06 19:48 -37.78387 -57.01961 18724 ft 356 kts 55°
2026-05-06 19:48 -37.77236 -56.99239 19230 ft 361 kts 55°
2026-05-06 19:49 -37.76025 -56.96439 19830 ft 364 kts 54°
2026-05-06 19:49 -37.74821 -56.93674 20377 ft 366 kts 54°
2026-05-06 19:49 -37.73399 -56.91059 20838 ft 357 kts 37°
2026-05-06 19:49 -37.71494 -56.89121 21325 ft 350 kts 26°
2026-05-06 19:50 -37.69419 -56.87507 21691 ft 349 kts 14°
2026-05-06 19:50 -37.67075 -56.86973 21759 ft 341 kts 348°
2026-05-06 19:50 -37.64816 -56.87832 21877 ft 342 kts 330°
2026-05-06 19:50 -37.62611 -56.89107 21974 ft 356 kts 332°
2026-05-06 19:51 -37.60311 -56.90335 22057 ft 369 kts 333°
2026-05-06 19:51 -37.57902 -56.91554 22308 ft 376 kts 333°
2026-05-06 19:51 -37.55464 -56.92765 22763 ft 377 kts 334°
2026-05-06 19:51 -37.53001 -56.93934 23175 ft 380 kts 335°
2026-05-06 19:52 -37.50520 -56.95085 23575 ft 381 kts 335°
2026-05-06 19:52 -37.48029 -56.96232 24055 ft 379 kts 335°
2026-05-06 19:52 -37.45558 -56.97365 24549 ft 377 kts 335°
2026-05-06 19:52 -37.43092 -56.98498 24995 ft 377 kts 335°
2026-05-06 19:53 -37.40622 -56.99634 25330 ft 379 kts 335°
2026-05-06 19:53 -37.38175 -57.00760 25759 ft 379 kts 335°
2026-05-06 19:53 -37.35715 -57.01896 26188 ft 378 kts 335°
2026-05-06 19:53 -37.33243 -57.03021 26610 ft 377 kts 335°
2026-05-06 19:54 -37.30765 -57.04156 26812 ft 382 kts 335°
2026-05-06 19:54 -37.28235 -57.05322 26824 ft 392 kts 335°
2026-05-06 19:54 -37.25640 -57.06518 26805 ft 401 kts 335°
2026-05-06 19:54 -37.22992 -57.07739 26820 ft 409 kts 335°
2026-05-06 19:55 -37.21211 -57.08559 26826 ft 414 kts 335°
2026-05-06 19:55 -37.18482 -57.09813 26819 ft 421 kts 335°
2026-05-06 19:55 -37.14797 -57.11501 26831 ft 430 kts 336°
2026-05-06 19:55 -37.11964 -57.12796 26816 ft 436 kts 336°
2026-05-06 19:56 -37.09101 -57.14103 26813 ft 440 kts 336°
2026-05-06 19:56 -37.07150 -57.14992 26795 ft 443 kts 335°
2026-05-06 19:56 -37.04242 -57.16317 26799 ft 446 kts 335°
2026-05-06 19:56 -37.01318 -57.17647 26799 ft 449 kts 335°
2026-05-06 19:57 -36.98372 -57.18988 26794 ft 451 kts 335°
2026-05-06 19:57 -36.95410 -57.20334 26796 ft 452 kts 335°
2026-05-06 19:57 -36.92489 -57.21662 26794 ft 453 kts 335°
2026-05-06 19:57 -36.89523 -57.23009 26771 ft 453 kts 335°
2026-05-06 19:58 -36.86552 -57.24356 26780 ft 453 kts 335°
2026-05-06 19:58 -36.83576 -57.25706 26781 ft 453 kts 335°
2026-05-06 19:58 -36.80618 -57.27046 26783 ft 453 kts 335°
2026-05-06 19:58 -36.77659 -57.28386 26784 ft 453 kts 335°
2026-05-06 19:59 -36.74691 -57.29731 26776 ft 452 kts 335°
2026-05-06 19:59 -36.71770 -57.31052 26765 ft 453 kts 335°
2026-05-06 19:59 -36.68803 -57.32393 26767 ft 454 kts 335°
2026-05-06 19:59 -36.65827 -57.33737 26767 ft 454 kts 335°
2026-05-06 20:00 -36.62853 -57.35078 26762 ft 454 kts 335°
2026-05-06 20:00 -36.59872 -57.36422 26765 ft 454 kts 335°
2026-05-06 20:00 -36.56899 -57.37760 26775 ft 455 kts 335°
2026-05-06 20:00 -36.53926 -57.39097 26770 ft 454 kts 335°
2026-05-06 20:01 -36.50951 -57.40434 26764 ft 454 kts 335°
2026-05-06 20:01 -36.47977 -57.41770 26774 ft 454 kts 335°
2026-05-06 20:01 -36.45002 -57.43106 26770 ft 454 kts 335°
2026-05-06 20:01 -36.42070 -57.44420 26768 ft 454 kts 335°
2026-05-06 20:02 -36.39098 -57.45753 26758 ft 454 kts 335°
2026-05-06 20:02 -36.36119 -57.47086 26753 ft 454 kts 335°
2026-05-06 20:02 -36.33149 -57.48415 26765 ft 454 kts 335°
2026-05-06 20:02 -36.30178 -57.49743 26765 ft 454 kts 335°
2026-05-06 20:03 -36.27206 -57.51069 26765 ft 454 kts 335°
2026-05-06 20:03 -36.24232 -57.52397 26759 ft 454 kts 335°
2026-05-06 20:03 -36.21264 -57.53720 26760 ft 454 kts 335°
2026-05-06 20:03 -36.18287 -57.55047 26759 ft 453 kts 335°
2026-05-06 20:04 -36.15322 -57.56366 26753 ft 453 kts 335°
2026-05-06 20:04 -36.12354 -57.57687 26760 ft 453 kts 335°
2026-05-06 20:04 -36.09387 -57.59006 26759 ft 453 kts 335°
2026-05-06 20:04 -36.06416 -57.60326 26751 ft 453 kts 335°
2026-05-06 20:05 -36.03451 -57.61642 26753 ft 453 kts 335°
2026-05-06 20:05 -36.00479 -57.62960 26762 ft 453 kts 335°
2026-05-06 20:05 -35.97510 -57.64276 26742 ft 453 kts 335°
2026-05-06 20:05 -35.94539 -57.65592 26765 ft 452 kts 335°
2026-05-06 20:06 -35.91615 -57.66884 26742 ft 452 kts 335°
2026-05-06 20:06 -35.88657 -57.68191 26748 ft 451 kts 335°
2026-05-06 20:06 -35.85702 -57.69497 26738 ft 450 kts 335°
2026-05-06 20:06 -35.82747 -57.70800 26753 ft 450 kts 335°
2026-05-06 20:07 -35.79791 -57.72104 26736 ft 450 kts 336°
2026-05-06 20:07 -35.76846 -57.73401 26746 ft 449 kts 336°
2026-05-06 20:07 -35.73897 -57.74685 26742 ft 449 kts 336°
2026-05-06 20:07 -35.70959 -57.75972 26744 ft 448 kts 336°
2026-05-06 20:08 -35.68025 -57.77271 26739 ft 448 kts 336°
2026-05-06 20:08 -35.65093 -57.78567 26741 ft 448 kts 336°
2026-05-06 20:08 -35.62157 -57.79860 26736 ft 447 kts 336°
2026-05-06 20:08 -35.59223 -57.81149 26727 ft 447 kts 336°
2026-05-06 20:09 -35.56292 -57.82432 26731 ft 448 kts 336°
2026-05-06 20:09 -35.53316 -57.83589 26725 ft 452 kts 343°
2026-05-06 20:09 -35.50220 -57.84078 26742 ft 456 kts 350°
2026-05-06 20:09 -35.47044 -57.84385 26730 ft 457 kts 351°
2026-05-06 20:10 -35.43874 -57.84671 26730 ft 457 kts 351°
2026-05-06 20:10 -35.40708 -57.84972 26711 ft 452 kts 350°
2026-05-06 20:10 -35.37652 -57.85279 26715 ft 430 kts 349°
2026-05-06 20:10 -35.34743 -57.85587 26713 ft 410 kts 349°
2026-05-06 20:11 -35.31959 -57.85896 26716 ft 393 kts 349°
2026-05-06 20:11 -35.29297 -57.86198 26716 ft 376 kts 348°
2026-05-06 20:11 -35.26766 -57.86489 26712 ft 362 kts 348°
2026-05-06 20:11 -35.24278 -57.86777 26725 ft 356 kts 348°
2026-05-06 20:12 -35.21821 -57.87064 26731 ft 350 kts 348°
2026-05-06 20:12 -35.19437 -57.87338 26711 ft 337 kts 348°
2026-05-06 20:12 -35.17145 -57.87598 26713 ft 324 kts 347°
2026-05-06 20:12 -35.14943 -57.87848 26727 ft 311 kts 347°
2026-05-06 20:13 -35.12830 -57.88087 26725 ft 299 kts 347°
2026-05-06 20:13 -35.10798 -57.88319 26723 ft 286 kts 347°
2026-05-06 20:13 -35.08857 -57.88541 26728 ft 275 kts 346°
2026-05-06 20:13 -35.06972 -57.88759 26722 ft 272 kts 346°
2026-05-06 20:14 -35.05056 -57.88985 26757 ft 282 kts 346°
2026-05-06 20:14 -35.03071 -57.89217 26764 ft 291 kts 347°
2026-05-06 20:14 -35.01076 -57.89454 26753 ft 290 kts 343°
2026-05-06 20:14 -34.99249 -57.90248 26743 ft 272 kts 321°
2026-05-06 20:15 -34.97829 -57.91720 26741 ft 265 kts 309°
2026-05-06 20:15 -34.96781 -57.93545 26752 ft 262 kts 294°
2026-05-06 20:15 -34.96170 -57.95640 26761 ft 262 kts 289°
2026-05-06 20:15 -34.95660 -57.97767 26747 ft 262 kts 288°
2026-05-06 20:16 -34.95165 -57.99903 26754 ft 262 kts 288°
2026-05-06 20:16 -34.94671 -58.02043 26749 ft 263 kts 288°
2026-05-06 20:16 -34.94179 -58.04162 26751 ft 264 kts 288°
2026-05-06 20:16 -34.93676 -58.06316 26749 ft 265 kts 288°
2026-05-06 20:17 -34.93169 -58.08475 26586 ft 266 kts 288°
2026-05-06 20:17 -34.92642 -58.10706 25726 ft 284 kts 288°
2026-05-06 20:17 -34.92067 -58.13125 24526 ft 311 kts 288°
2026-05-06 20:17 -34.91432 -58.15763 23331 ft 337 kts 289°
2026-05-06 20:18 -34.90759 -58.18593 21969 ft 358 kts 288°
2026-05-06 20:18 -34.90058 -58.21555 20983 ft 367 kts 289°
2026-05-06 20:18 -34.89338 -58.24589 19789 ft 380 kts 289°
2026-05-06 20:18 -34.88592 -58.27721 18693 ft 389 kts 289°
2026-05-06 20:19 -34.87857 -58.30810 17884 ft 390 kts 289°
2026-05-06 20:19 -34.87098 -58.33997 17156 ft 386 kts 289°
2026-05-06 20:19 -34.86354 -58.37111 16499 ft 381 kts 289°
2026-05-06 20:19 -34.85625 -58.40156 15821 ft 377 kts 289°
2026-05-06 20:20 -34.84891 -58.43215 15130 ft 374 kts 289°
2026-05-06 20:20 -34.84162 -58.46245 14452 ft 372 kts 289°
2026-05-06 20:20 -34.83437 -58.49257 13826 ft 369 kts 289°
2026-05-06 20:20 -34.82589 -58.52171 13196 ft 361 kts 299°
2026-05-06 20:21 -34.81173 -58.54659 12519 ft 356 kts 313°
2026-05-06 20:21 -34.79346 -58.56672 11862 ft 352 kts 320°
2026-05-06 20:21 -34.77458 -58.58492 11250 ft 349 kts 321°
2026-05-06 20:21 -34.75555 -58.60311 10604 ft 346 kts 321°
2026-05-06 20:22 -34.73668 -58.62121 10001 ft 343 kts 321°
2026-05-06 20:22 -34.71814 -58.63915 9441 ft 339 kts 321°
2026-05-06 20:22 -34.69981 -58.65696 8813 ft 335 kts 321°
2026-05-06 20:22 -34.68173 -58.67458 8370 ft 326 kts 321°
2026-05-06 20:23 -34.66453 -58.69135 8111 ft 307 kts 321°
2026-05-06 20:23 -34.64827 -58.70722 7855 ft 291 kts 321°
2026-05-06 20:23 -34.63283 -58.72228 7602 ft 278 kts 321°
2026-05-06 20:23 -34.61831 -58.73644 7355 ft 265 kts 321°
2026-05-06 20:24 -34.60421 -58.75017 7107 ft 254 kts 321°
2026-05-06 20:24 -34.59073 -58.76332 6898 ft 242 kts 321°
2026-05-06 20:24 -34.57786 -58.77584 6658 ft 232 kts 321°
2026-05-06 20:24 -34.56396 -58.78502 6266 ft 232 kts 345°
2026-05-06 20:25 -34.54715 -58.78275 5325 ft 265 kts 18°
2026-05-06 20:25 -34.53306 -58.76691 4708 ft 292 kts 53°
2026-05-06 20:25 -34.52761 -58.74288 4278 ft 299 kts 76°
2026-05-06 20:25 -34.52254 -58.71957 3990 ft 275 kts 56°
2026-05-06 20:26 -34.51371 -58.69964 3751 ft 261 kts 52°
2026-05-06 20:26 -34.50476 -58.68129 3652 ft 246 kts 51°
2026-05-06 20:26 -34.49618 -58.66438 3541 ft 229 kts 50°
2026-05-06 20:26 -34.48809 -58.64877 3472 ft 209 kts 49°
2026-05-06 20:27 -34.48067 -58.63460 3361 ft 190 kts 49°
2026-05-06 20:27 -34.47388 -58.62167 3291 ft 174 kts 47°
2026-05-06 20:27 -34.46770 -58.60890 3156 ft 185 kts 60°
2026-05-06 20:27 -34.46626 -58.59298 3006 ft 194 kts 85°
2026-05-06 20:28 -34.47061 -58.57727 2894 ft 199 kts 114°
2026-05-06 20:28 -34.47804 -58.56286 2615 ft 204 kts 114°
2026-05-06 20:28 -34.48566 -58.54829 2284 ft 203 kts 117°
2026-05-06 20:28 -34.49338 -58.53458 2154 ft 197 kts 118°
2026-05-06 20:29 -34.50089 -58.52081 1862 ft 191 kts 117°
2026-05-06 20:29 -34.50814 -58.50782 1584 ft 186 kts 119°
2026-05-06 20:29 -34.51528 -58.49498 1353 ft 184 kts 120°
2026-05-06 20:29 -34.52231 -58.48227 1094 ft 177 kts 120°
2026-05-06 20:30 -34.52914 -58.47010 921 ft 171 kts 119°
2026-05-06 20:30 -34.54196 -58.44694 455 ft 155 kts 123°
2026-05-06 20:30 -34.54767 -58.43663 266 ft 143 kts 123°
2026-05-06 20:31 -34.55306 -58.42687 90 ft 138 kts 123°
2026-05-06 20:31 -34.55808 -58.41787 23 ft 111 kts 124°
2026-05-06 20:31 -34.56093 -58.41273 25 ft 41 kts 124°
2026-05-06 20:31 -34.56191 -58.41080 28 ft 14 kts 94°
2026-05-06 20:32 -34.56176 -58.41022 24 ft 4 kts 54°
2026-05-06 20:32 -34.56152 -58.40986 24 ft 6 kts 42°
2026-05-06 20:32 -34.56115 -58.40999 26 ft 7 kts 313°
2026-05-06 20:32 -34.56087 -58.41043 24 ft 7 kts 308°
2026-05-06 20:33 -34.56058 -58.41084 25 ft 6 kts 322°
2026-05-06 20:33 -34.56020 -58.41066 24 ft 6 kts 32°
2026-05-06 20:33 -34.55979 -58.41076 27 ft 7 kts 321°
2026-05-06 20:33 -34.55946 -58.41113 26 ft 6 kts 314°
2026-05-06 20:34 -34.55943 -58.41117 24 ft 6 kts 312°
2026-05-06 20:34 -34.55940 -58.41121 24 ft 6 kts 312°
2026-05-06 20:34 -34.55910 -58.41161 28 ft 6 kts 312°
2026-05-06 20:35 -34.55883 -58.41201 27 ft 6 kts 309°
2026-05-06 20:35 -34.55854 -58.41236 24 ft 6 kts 344°
2026-05-06 20:35 -34.55829 -58.41222 26 ft 2 kts 39°
2026-05-06 20:35 -34.55824 -58.41217 24 ft 0 kts 39°
2026-05-06 20:36 -34.55823 -58.41216 24 ft 0 kts 39°